This demonstration page uses our WeatherBlox Daily Observations layout. Learn more.

Left ArrowRight Arrow

Hourly Observations for September 17, 2017

Temp ( °F °C ) Dew Point ( °F °C ) Humidity (%) Winds ( mph kmh ) Pressure ( in mb ) Visibility ( mi km ) Precip ( " mm )
12:10 am 00:10 Clear 66 19 63 17 88 88 S 3 6 30.15 1021 10 16 N/A
12:30 am 00:30 Clear 66 19 63 17 88 88 SSE 3 6 30.15 1021 10 16 N/A
12:50 am 00:50 Clear 64 18 63 17 94 94 SE 3 6 30.15 1021 10 16 N/A
1:11 am 01:11 Clear 64 18 63 17 94 94 SE 5 7 30.15 1021 10 16 N/A
1:30 am 01:30 Clear 64 18 63 17 94 94 SSE 3 6 30.12 1020 10 16 N/A
1:50 am 01:50 Clear 64 18 63 17 94 94 SSE 3 6 30.12 1020 10 16 N/A
2:11 am 02:11 Partly Cloudy 64 18 63 17 94 94 SSE 5 7 30.12 1020 10 16 N/A
2:30 am 02:30 Partly Cloudy 64 18 63 17 94 94 SE 5 7 30.12 1020 10 16 N/A
2:50 am 02:50 Clear 64 18 63 17 94 94 SE 5 7 30.12 1020 10 16 N/A
3:11 am 03:11 Clear 64 18 61 16 88 88 SSE 5 7 30.12 1020 10 16 N/A
3:30 am 03:30 Partly Cloudy 64 18 61 16 88 88 SSE 3 6 30.12 1020 10 16 N/A
3:50 am 03:50 Mostly Cloudy 64 18 61 16 88 88 SSE 3 6 30.09 1019 10 16 N/A
4:11 am 04:11 Partly Cloudy 64 18 61 16 88 88 SSE 5 7 30.09 1019 10 16 N/A
4:30 am 04:30 Clear 63 17 61 16 94 94 SSE 3 6 30.09 1019 10 16 N/A
4:50 am 04:50 Clear 63 17 61 16 94 94 SE 3 6 30.09 1019 7 11 N/A
5:11 am 05:11 Partly Cloudy 63 17 61 16 94 94 SSE 3 6 30.09 1019 7 11 N/A
5:30 am 05:30 Mostly Cloudy 63 17 61 16 94 94 S 3 6 30.09 1019 7 11 N/A
5:50 am 05:50 Partly Cloudy 63 17 61 16 94 94 SSE 5 7 30.09 1019 10 16 N/A
6:11 am 06:11 Partly Cloudy 63 17 61 16 94 94 SSE 5 7 30.12 1020 10 16 N/A
6:30 am 06:30 Mostly Cloudy 63 17 61 16 94 94 N N/A 30.12 1020 10 16 N/A
6:50 am 06:50 Cloudy 64 18 63 17 94 94 SSE 5 7 30.12 1020 10 16 N/A
7:11 am 07:11 Cloudy 64 18 63 17 94 94 SSE 3 6 30.12 1020 10 16 N/A
7:30 am 07:30 Cloudy 64 18 63 17 94 94 N N/A 30.12 1020 10 16 N/A
7:50 am 07:50 Cloudy 64 18 63 17 94 94 SE 5 7 30.15 1021 7 11 N/A
8:11 am 08:11 Cloudy 64 18 63 17 94 94 S 5 7 30.15 1021 10 16 N/A
8:30 am 08:30 Mostly Cloudy 66 19 63 17 88 88 SSE 5 7 30.15 1021 10 16 N/A
8:51 am 08:51 Mostly Cloudy 66 19 63 17 88 88 SSE 3 6 30.15 1021 10 16 N/A
9:10 am 09:10 Mostly Cloudy 68 20 63 17 83 83 S 3 6 30.15 1021 10 16 N/A
9:30 am 09:30 Cloudy 66 19 63 17 88 88 SSE 5 7 30.15 1021 10 16 N/A
9:51 am 09:51 Cloudy 68 20 64 18 88 88 SSE 5 7 30.15 1021 10 16 N/A
10:10 am 10:10 Cloudy 70 21 64 18 83 83 SSE 5 7 30.15 1021 10 16 N/A
10:30 am 10:30 Mostly Cloudy 70 21 64 18 83 83 S 5 7 30.15 1021 10 16 N/A
10:51 am 10:51 Mostly Cloudy 72 22 64 18 78 78 SSE 5 7 30.15 1021 10 16 N/A
11:10 am 11:10 Partly Cloudy 72 22 64 18 78 78 SSE 6 9 30.15 1021 10 16 N/A
11:30 am 11:30 Partly Cloudy 75 24 66 19 74 74 S 3 6 30.12 1020 10 16 N/A
11:51 am 11:51 Sunny 77 25 66 19 69 69 SSE 6 9 30.12 1020 10 16 N/A
12:10 pm 12:10 Sunny 77 25 66 19 69 69 SE 6 9 30.09 1019 10 16 N/A
12:30 pm 12:30 Sunny 79 26 66 19 65 65 S 6 9 30.09 1019 10 16 N/A
12:51 pm 12:51 Sunny 81 27 68 20 66 66 SSE 6 9 30.09 1019 10 16 N/A
1:10 pm 13:10 Sunny 82 28 68 20 62 62 SSE 8 13 30.09 1019 10 16 N/A
1:30 pm 13:30 Sunny 82 28 68 20 62 62 S 7 11 30.09 1019 10 16 N/A
1:50 pm 13:50 Partly Cloudy 84 29 66 19 55 55 S 6 9 30.09 1019 10 16 N/A
2:10 pm 14:10 Partly Cloudy 82 28 66 19 58 58 SSW 5 7 30.06 1018 10 16 N/A
2:30 pm 14:30 Partly Cloudy 84 29 66 19 55 55 SSE 9 15 30.06 1018 10 16 N/A
2:50 pm 14:50 Partly Cloudy 82 28 66 19 58 58 N N/A 30.06 1018 10 16 N/A
3:10 pm 15:10 Partly Cloudy 86 30 64 18 49 49 S 7 11 30.06 1018 10 16 N/A
3:30 pm 15:30 Partly Cloudy 86 30 64 18 49 49 SW 6 9 30.06 1018 10 16 N/A
3:50 pm 15:50 Sunny 86 30 64 18 49 49 SSW 6 9 30.06 1018 10 16 N/A
4:10 pm 16:10 Sunny 86 30 64 18 49 49 SSE 7 11 30.03 1017 10 16 N/A
4:30 pm 16:30 Partly Cloudy 86 30 64 18 49 49 S 5 7 30.03 1017 10 16 N/A
4:50 pm 16:50 Partly Cloudy 86 30 64 18 49 49 S 7 11 30.03 1017 10 16 N/A
5:10 pm 17:10 Sunny 86 30 64 18 49 49 S 6 9 30.03 1017 10 16 N/A
5:30 pm 17:30 Sunny 86 30 64 18 49 49 S 7 11 30.03 1017 10 16 N/A
5:50 pm 17:50 Sunny 86 30 64 18 49 49 S 5 7 30.03 1017 10 16 N/A
6:10 pm 18:10 Sunny 84 29 64 18 51 51 S 7 11 30.03 1017 10 16 N/A
6:30 pm 18:30 Mostly Cloudy 82 28 64 18 55 55 SSW 6 9 30.03 1017 10 16 N/A
6:50 pm 18:50 Mostly Cloudy 81 27 64 18 58 58 S 5 7 30.03 1017 10 16 N/A
7:10 pm 19:10 Partly Cloudy 79 26 64 18 61 61 S 3 6 30.03 1017 10 16 N/A
7:31 pm 19:31 Mostly Cloudy 79 26 64 18 61 61 S 3 6 30.03 1017 10 16 N/A
7:50 pm 19:50 Mostly Cloudy 79 26 64 18 61 61 S 5 7 30.03 1017 10 16 N/A
8:10 pm 20:10 Partly Cloudy 77 25 64 18 65 65 S 5 7 30.03 1017 10 16 N/A
8:31 pm 20:31 Partly Cloudy 75 24 64 18 69 69 S 5 7 30.03 1017 10 16 N/A
8:50 pm 20:50 Mostly Cloudy 73 23 64 18 74 74 S 5 7 30.03 1017 10 16 N/A
9:10 pm 21:10 Mostly Cloudy 75 24 64 18 69 69 S 3 6 30.03 1017 10 16 N/A
9:31 pm 21:31 Cloudy 75 24 64 18 69 69 WNW 9 15 30.06 1018 10 16 N/A
9:50 pm 21:50 Mostly Cloudy 75 24 66 19 74 74 NNW 9 15 30.06 1018 10 16 N/A
10:10 pm 22:10 Partly Cloudy 72 22 66 19 83 83 NNW 6 9 30.06 1018 10 16 N/A
10:31 pm 22:31 Partly Cloudy 70 21 66 19 88 88 NE 5 7 30.09 1019 10 16 N/A
10:50 pm 22:50 Clear 70 21 66 19 88 88 N N/A 30.09 1019 10 16 N/A
11:10 pm 23:10 Mostly Cloudy 68 20 66 19 94 94 N N/A 30.09 1019 10 16 N/A
11:31 pm 23:31 Cloudy 68 20 66 19 94 94 N N/A 30.09 1019 10 16 N/A
11:50 pm 23:50 Cloudy 70 21 66 19 88 88 N N/A 30.12 1020 10 16 N/A

Powered by AerisWeather